| time (UTC) | temp C | wind direction | speed KPH | gust KPH | rain 1hr cm | rain 24hr cm | rain mn cm | humidity % | barometer mb |
| 20260504015502 | 11 | 255 | 14.5 | 30.6 | 0.00 | 0.00 | 0.00 | 57 | 1013.8 |
| 20260504015004 | 11 | 257 | 12.9 | 30.6 | 0.00 | 0.00 | 0.00 | 56 | 1013.7 |
| 20260504014500 | 11 | 245 | 11.3 | 25.7 | 0.00 | 0.00 | 0.00 | 56 | 1013.6 |
| 20260504014000 | 11 | 264 | 14.5 | 30.6 | 0.00 | 0.00 | 0.00 | 55 | 1013.6 |
| 20260504013500 | 11 | 277 | 12.9 | 30.6 | 0.00 | 0.00 | 0.00 | 54 | 1013.5 |
| 20260504013002 | 11 | 300 | 16.1 | 30.6 | 0.00 | 0.00 | 0.00 | 54 | 1013.4 |
| 20260504012600 | 10 | 234 | 11.3 | 24.1 | 0.00 | 0.00 | 0.00 | 54 | 1013.4 |
| 20260504012103 | 10 | 261 | 4.8 | 11.3 | 0.00 | 0.00 | 0.00 | 53 | 1013.3 |
| 20260504011601 | 10 | 230 | 4.8 | 9.7 | 0.00 | 0.00 | 0.00 | 53 | 1013.2 |
| 20260504011100 | 11 | 210 | 3.2 | 9.7 | 0.00 | 0.00 | 0.00 | 52 | 1013.2 |
| 20260504010559 | 11 | 252 | 4.8 | 11.3 | 0.00 | 0.00 | 0.00 | 52 | 1013.2 |
| 20260504010100 | 11 | 227 | 4.8 | 12.9 | 0.00 | 0.00 | 0.00 | 52 | 1013.2 |
| 20260504005559 | 11 | 225 | 4.8 | 12.9 | 0.00 | 0.00 | 0.00 | 52 | 1013.2 |
| 20260504005059 | 11 | 240 | 4.8 | 11.3 | 0.00 | 0.00 | 0.00 | 52 | 1013.2 |
| 20260504004638 | 11 | 237 | 4.8 | 12.9 | 0.00 | 0.00 | 0.00 | 52 | 1013.2 |
| 20260504004058 | 11 | 221 | 6.4 | 12.9 | 0.00 | 0.00 | 0.00 | 51 | 1013.2 |
| 20260504003558 | 11 | 249 | 4.8 | 11.3 | 0.00 | 0.00 | 0.00 | 51 | 1013.2 |
| 20260504003101 | 11 | 252 | 4.8 | 11.3 | 0.00 | 0.00 | 0.00 | 51 | 1013.2 |
| 20260504002558 | 11 | 244 | 4.8 | 12.9 | 0.00 | 0.00 | 0.00 | 51 | 1013.2 |
| 20260504002058 | 11 | 231 | 6.4 | 12.9 | 0.00 | 0.00 | 0.00 | 50 | 1013.1 |
| 20260504001622 | 11 | 222 | 3.2 | 12.9 | 0.00 | 0.00 | 0.00 | 50 | 1013.1 |
| 20260504001100 | 11 | 235 | 4.8 | 12.9 | 0.00 | 0.00 | 0.00 | 49 | 1013.1 |
| 20260504000556 | 11 | 247 | 4.8 | 11.3 | 0.00 | 0.00 | 0.00 | 49 | 1013.2 |
| 20260504000108 | 12 | 244 | 3.2 | 12.9 | 0.00 | 0.00 | 0.00 | 49 | 1013.2 |
| 20260503235656 | 12 | 240 | 4.8 | 12.9 | 0.00 | 0.00 | 0.00 | 49 | 1013.2 |
| 20260503235055 | 12 | 237 | 3.2 | 12.9 | 0.00 | 0.00 | 0.00 | 49 | 1013.3 |
| 20260503234601 | 12 | 244 | 3.2 | 12.9 | 0.00 | 0.00 | 0.00 | 48 | 1013.3 |
| 20260503234055 | 12 | 238 | 4.8 | 17.7 | 0.00 | 0.00 | 0.00 | 48 | 1013.4 |
| 20260503233553 | 12 | 233 | 8.0 | 19.3 | 0.00 | 0.00 | 0.00 | 48 | 1013.4 |
| 20260503233100 | 12 | 240 | 6.4 | 19.3 | 0.00 | 0.00 | 0.00 | 48 | 1013.4 |
| 20260503232553 | 12 | 240 | 4.8 | 19.3 | 0.00 | 0.00 | 0.00 | 48 | 1013.5 |
| 20260503232052 | 12 | 236 | 8.0 | 19.3 | 0.00 | 0.00 | 0.00 | 47 | 1013.6 |
| 20260503231552 | 12 | 254 | 4.8 | 19.3 | 0.00 | 0.00 | 0.00 | 47 | 1013.5 |
| 20260503231052 | 12 | 251 | 8.0 | 19.3 | 0.00 | 0.00 | 0.00 | 46 | 1013.6 |
| 20260503230552 | 12 | 240 | 9.7 | 24.1 | 0.00 | 0.00 | 0.00 | 47 | 1013.6 |
| 20260503230111 | 12 | 231 | 12.9 | 33.8 | 0.00 | 0.00 | 0.00 | 45 | 1013.6 |
| 20260503225551 | 12 | 247 | 12.9 | 33.8 | 0.00 | 0.00 | 0.00 | 45 | 1013.7 |
| 20260503225049 | 12 | 248 | 9.7 | 29.0 | 0.00 | 0.00 | 0.00 | 46 | 1013.7 |
| 20260503224551 | 12 | 271 | 11.3 | 27.4 | 0.00 | 0.00 | 0.00 | 46 | 1013.8 |
| 20260503224049 | 13 | 256 | 9.7 | 27.4 | 0.00 | 0.00 | 0.00 | 47 | 1013.8 |
| 20260503223549 | 13 | 219 | 8.0 | 20.9 | 0.00 | 0.00 | 0.00 | 48 | 1013.9 |
| 20260503223048 | 13 | 259 | 8.0 | 20.9 | 0.00 | 0.00 | 0.00 | 48 | 1013.9 |
| 20260503222548 | 13 | 254 | 6.4 | 22.5 | 0.00 | 0.00 | 0.00 | 47 | 1014.0 |
| 20260503222048 | 13 | 256 | 9.7 | 27.4 | 0.00 | 0.00 | 0.00 | 46 | 1014.0 |
| 20260503221549 | 13 | 258 | 12.9 | 27.4 | 0.00 | 0.00 | 0.00 | 45 | 1013.9 |
| 20260503221047 | 13 | 233 | 11.3 | 20.9 | 0.00 | 0.00 | 0.00 | 46 | 1014.0 |
| 20260503220547 | 13 | 234 | 12.9 | 22.5 | 0.00 | 0.00 | 0.00 | 46 | 1013.9 |
| 20260503220050 | 13 | 227 | 12.9 | 22.5 | 0.00 | 0.00 | 0.00 | 46 | 1014.0 |
| 20260503215546 | 13 | 254 | 9.7 | 22.5 | 0.00 | 0.00 | 0.00 | 46 | 1013.9 |
| 20260503215047 | 13 | 246 | 11.3 | 24.1 | 0.00 | 0.00 | 0.00 | 46 | 1014.0 |
| 20260503214554 | 13 | 216 | 9.7 | 24.1 | 0.00 | 0.00 | 0.00 | 46 | 1013.9 |
| 20260503214045 | 13 | 257 | 9.7 | 19.3 | 0.00 | 0.00 | 0.00 | 46 | 1014.0 |
| 20260503213547 | 13 | 240 | 8.0 | 20.9 | 0.00 | 0.00 | 0.00 | 47 | 1014.1 |
| 20260503213045 | 13 | 257 | 9.7 | 24.1 | 0.00 | 0.00 | 0.00 | 46 | 1014.1 |
| 20260503212548 | 13 | 244 | 11.3 | 24.1 | 0.00 | 0.00 | 0.00 | 46 | 1014.1 |
| 20260503212046 | 13 | 221 | 9.7 | 27.4 | 0.00 | 0.00 | 0.00 | 47 | 1014.1 |
| 20260503211547 | 13 | 259 | 12.9 | 29.0 | 0.00 | 0.00 | 0.00 | 46 | 1014.0 |
| 20260503211044 | 13 | 239 | 12.9 | 29.0 | 0.00 | 0.00 | 0.00 | 43 | 1014.0 |
| 20260503210543 | 13 | 239 | 12.9 | 25.7 | 0.00 | 0.00 | 0.00 | 44 | 1014.0 |
| 20260503210045 | 13 | 232 | 14.5 | 25.7 | 0.00 | 0.00 | 0.00 | 45 | 1014.1 |
| 20260503205543 | 13 | 266 | 11.3 | 25.7 | 0.00 | 0.00 | 0.00 | 45 | 1014.1 |
| 20260503205043 | 13 | 236 | 11.3 | 25.7 | 0.00 | 0.00 | 0.00 | 46 | 1014.1 |
| 20260503204644 | 13 | 231 | 14.5 | 29.0 | 0.00 | 0.00 | 0.00 | 47 | 1014.2 |
| 20260503204043 | 13 | 255 | 12.9 | 29.0 | 0.00 | 0.00 | 0.00 | 45 | 1014.2 |
| 20260503203541 | 13 | 245 | 9.7 | 25.7 | 0.00 | 0.00 | 0.00 | 44 | 1014.2 |
| 20260503203059 | 13 | 265 | 8.0 | 29.0 | 0.00 | 0.00 | 0.00 | 47 | 1014.1 |
| 20260503202539 | 13 | 250 | 12.9 | 29.0 | 0.00 | 0.00 | 0.00 | 44 | 1014.2 |
| 20260503202041 | 13 | 267 | 12.9 | 29.0 | 0.00 | 0.00 | 0.00 | 44 | 1014.3 |
| 20260503201538 | 13 | 290 | 14.5 | 29.0 | 0.00 | 0.00 | 0.00 | 45 | 1014.4 |
| 20260503201038 | 13 | 232 | 16.1 | 25.7 | 0.00 | 0.00 | 0.00 | 43 | 1014.5 |
| 20260503200536 | 13 | 294 | 17.7 | 33.8 | 0.00 | 0.00 | 0.00 | 44 | 1014.6 |
| 20260503200036 | 13 | 273 | 14.5 | 33.8 | 0.00 | 0.00 | 0.00 | 42 | 1014.7 |
| 20260503195535 | 13 | 228 | 12.9 | 29.0 | 0.00 | 0.00 | 0.00 | 46 | 1014.8 |
| 20260503195034 | 13 | 227 | 9.7 | 27.4 | 0.00 | 0.00 | 0.00 | 46 | 1014.9 |
| 20260503194541 | 13 | 269 | 12.9 | 27.4 | 0.00 | 0.00 | 0.00 | 44 | 1014.9 |
| 20260503194033 | 13 | 227 | 9.7 | 27.4 | 0.00 | 0.00 | 0.00 | 46 | 1015.1 |
| 20260503193533 | 13 | 232 | 16.1 | 27.4 | 0.00 | 0.00 | 0.00 | 44 | 1015.2 |
| 20260503193037 | 13 | 267 | 12.9 | 27.4 | 0.00 | 0.00 | 0.00 | 43 | 1015.2 |
| 20260503192531 | 13 | 257 | 9.7 | 37.0 | 0.00 | 0.00 | 0.00 | 44 | 1015.3 |
| 20260503192030 | 13 | 229 | 17.7 | 37.0 | 0.00 | 0.00 | 0.00 | 44 | 1015.4 |
| 20260503191531 | 13 | 261 | 16.1 | 30.6 | 0.00 | 0.00 | 0.00 | 43 | 1015.5 |
| 20260503191029 | 13 | 240 | 19.3 | 30.6 | 0.00 | 0.00 | 0.00 | 43 | 1015.5 |
| 20260503190530 | 13 | 262 | 12.9 | 32.2 | 0.00 | 0.00 | 0.00 | 44 | 1015.7 |
| 20260503190036 | 13 | 265 | 16.1 | 32.2 | 0.00 | 0.00 | 0.00 | 44 | 1015.7 |
| 20260503185529 | 13 | 261 | 14.5 | 38.6 | 0.00 | 0.00 | 0.00 | 44 | 1015.8 |
| 20260503185027 | 13 | 281 | 12.9 | 40.2 | 0.00 | 0.00 | 0.00 | 45 | 1015.8 |
| 20260503184526 | 13 | 284 | 16.1 | 30.6 | 0.00 | 0.00 | 0.00 | 42 | 1016.0 |
| 20260503184023 | 13 | 275 | 14.5 | 27.4 | 0.00 | 0.00 | 0.00 | 42 | 1016.0 |
| 20260503183527 | 13 | 302 | 11.3 | 27.4 | 0.00 | 0.00 | 0.00 | 45 | 1016.1 |
| 20260503183022 | 13 | 240 | 16.1 | 29.0 | 0.00 | 0.00 | 0.00 | 41 | 1016.0 |
| 20260503182521 | 13 | 283 | 17.7 | 29.0 | 0.00 | 0.00 | 0.00 | 42 | 1016.2 |
| 20260503182021 | 13 | 226 | 11.3 | 32.2 | 0.00 | 0.00 | 0.00 | 45 | 1016.2 |
| 20260503181521 | 13 | 227 | 9.7 | 30.6 | 0.00 | 0.00 | 0.00 | 46 | 1016.3 |
| 20260503181020 | 13 | 269 | 19.3 | 29.0 | 0.00 | 0.00 | 0.00 | 44 | 1016.2 |
| 20260503180519 | 13 | 273 | 9.7 | 27.4 | 0.00 | 0.00 | 0.00 | 45 | 1016.3 |
| 20260503180020 | 12 | 252 | 12.9 | 27.4 | 0.00 | 0.00 | 0.00 | 46 | 1016.4 |
| 20260503175518 | 12 | 259 | 8.0 | 24.1 | 0.00 | 0.00 | 0.00 | 49 | 1016.5 |
| 20260503175017 | 12 | 224 | 9.7 | 27.4 | 0.00 | 0.00 | 0.00 | 47 | 1016.6 |
| 20260503174517 | 12 | 269 | 11.3 | 27.4 | 0.00 | 0.00 | 0.00 | 45 | 1016.5 |
| 20260503174016 | 13 | 291 | 11.3 | 24.1 | 0.00 | 0.00 | 0.00 | 46 | 1016.6 |
| 20260503173515 | 13 | 267 | 6.4 | 25.7 | 0.00 | 0.00 | 0.00 | 50 | 1016.6 |
| 20260503173014 | 12 | 237 | 14.5 | 30.6 | 0.00 | 0.00 | 0.00 | 46 | 1016.7 |
| 20260503172514 | 12 | 247 | 14.5 | 30.6 | 0.00 | 0.00 | 0.00 | 49 | 1016.7 |
| 20260503172012 | 12 | 237 | 16.1 | 30.6 | 0.00 | 0.00 | 0.00 | 48 | 1016.8 |
| 20260503171510 | 12 | 281 | 12.9 | 27.4 | 0.00 | 0.00 | 0.00 | 50 | 1017.0 |
| 20260503171011 | 12 | 257 | 9.7 | 24.1 | 0.00 | 0.00 | 0.00 | 47 | 1016.9 |
| 20260503170508 | 12 | 214 | 11.3 | 25.7 | 0.00 | 0.00 | 0.00 | 51 | 1017.0 |
| 20260503150540 | 8 | 202 | 14.5 | 29.0 | 0.00 | 0.00 | 0.00 | 56 | 1018.3 |
| 20260503131010 | 5 | 294 | 8.0 | 17.7 | 0.00 | 0.00 | 0.00 | 73 | 1018.7 |
| 20260503130513 | 4 | 262 | 9.7 | 17.7 | 0.00 | 0.00 | 0.00 | 74 | 1018.7 |
| 20260503110533 | 0 | 234 | 4.8 | 8.0 | 0.00 | 0.00 | 0.00 | 92 | 1017.8 |
| 20260503081527 | 1 | 244 | 1.6 | 3.2 | 0.00 | 0.00 | 0.00 | 90 | 1017.3 |
| 20260503081015 | 1 | 260 | 1.6 | 4.8 | 0.00 | 0.00 | 0.00 | 90 | 1017.3 |
| 20260503080515 | 1 | 260 | 1.6 | 4.8 | 0.00 | 0.00 | 0.00 | 90 | 1017.3 |
| 20260503072512 | 1 | 260 | 1.6 | 6.4 | 0.00 | 0.00 | 0.00 | 88 | 1017.2 |
| 20260503072010 | 1 | 261 | 1.6 | 6.4 | 0.00 | 0.00 | 0.00 | 88 | 1017.2 |
| 20260503071509 | 1 | 259 | 3.2 | 6.4 | 0.00 | 0.00 | 0.00 | 88 | 1017.2 |
| 20260503071008 | 1 | 264 | 1.6 | 6.4 | 0.00 | 0.00 | 0.00 | 87 | 1017.2 |
| 20260503070507 | 2 | 257 | 3.2 | 9.7 | 0.00 | 0.00 | 0.00 | 87 | 1017.2 |
| 20260503060118 | 2 | 270 | 3.2 | 8.0 | 0.00 | 0.00 | 0.00 | 87 | 1017.3 |
| 20260503055101 | 2 | 281 | 1.6 | 4.8 | 0.00 | 0.00 | 0.00 | 87 | 1017.3 |
| 20260503054620 | 2 | 252 | 0.0 | 4.8 | 0.00 | 0.00 | 0.00 | 88 | 1017.3 |
| 20260503054059 | 2 | 252 | 1.6 | 11.3 | 0.00 | 0.00 | 0.00 | 88 | 1017.3 |
| 20260503053559 | 2 | 252 | 3.2 | 11.3 | 0.00 | 0.00 | 0.00 | 88 | 1017.3 |
| 20260503053057 | 2 | 263 | 4.8 | 8.0 | 0.00 | 0.00 | 0.00 | 87 | 1017.4 |
| 20260503052557 | 2 | 257 | 3.2 | 4.8 | 0.00 | 0.00 | 0.00 | 87 | 1017.4 |
| 20260503052055 | 2 | 258 | 1.6 | 4.8 | 0.00 | 0.00 | 0.00 | 87 | 1017.5 |
| 20260503051555 | 2 | 237 | 3.2 | 6.4 | 0.00 | 0.00 | 0.00 | 87 | 1017.4 |
| 20260503051054 | 2 | 249 | 3.2 | 6.4 | 0.00 | 0.00 | 0.00 | 87 | 1017.5 |
| 20260503050557 | 2 | 271 | 1.6 | 6.4 | 0.00 | 0.00 | 0.00 | 87 | 1017.6 |
| 20260503050053 | 2 | 268 | 1.6 | 4.8 | 0.00 | 0.00 | 0.00 | 87 | 1017.5 |
| 20260503045558 | 2 | 268 | 1.6 | 4.8 | 0.00 | 0.00 | 0.00 | 87 | 1017.6 |
| 20260503045054 | 2 | 268 | 1.6 | 4.8 | 0.00 | 0.00 | 0.00 | 87 | 1017.6 |
| 20260503044554 | 2 | 268 | 1.6 | 4.8 | 0.00 | 0.00 | 0.00 | 87 | 1017.6 |
| 20260503044052 | 2 | 268 | 1.6 | 4.8 | 0.00 | 0.00 | 0.00 | 87 | 1017.6 |
| 20260503043551 | 2 | 268 | 1.6 | 4.8 | 0.00 | 0.00 | 0.00 | 87 | 1017.6 |
| 20260503043051 | 2 | 268 | 1.6 | 4.8 | 0.00 | 0.00 | 0.00 | 87 | 1017.6 |
| 20260503042551 | 2 | 268 | 1.6 | 4.8 | 0.00 | 0.00 | 0.00 | 87 | 1017.7 |
| 20260503042050 | 2 | 268 | 1.6 | 8.0 | 0.00 | 0.00 | 0.00 | 87 | 1017.7 |
| 20260503041550 | 2 | 263 | 1.6 | 8.0 | 0.00 | 0.00 | 0.00 | 87 | 1017.7 |
| 20260503041052 | 2 | 244 | 3.2 | 6.4 | 0.00 | 0.00 | 0.00 | 87 | 1017.7 |
| 20260503040548 | 2 | 264 | 3.2 | 6.4 | 0.00 | 0.00 | 0.00 | 86 | 1017.7 |
| 20260503040048 | 2 | 268 | 3.2 | 4.8 | 0.00 | 0.00 | 0.00 | 86 | 1017.8 |
| 20260503035547 | 2 | 259 | 1.6 | 4.8 | 0.00 | 0.00 | 0.00 | 86 | 1017.8 |
| 20260503035049 | 3 | 259 | 1.6 | 9.7 | 0.00 | 0.00 | 0.00 | 86 | 1017.8 |
| 20260503034547 | 3 | 241 | 3.2 | 9.7 | 0.00 | 0.00 | 0.00 | 86 | 1017.8 |
| 20260503034047 | 3 | 269 | 1.6 | 4.8 | 0.00 | 0.00 | 0.00 | 86 | 1017.8 |
| 20260503033549 | 3 | 269 | 1.6 | 4.8 | 0.00 | 0.00 | 0.00 | 87 | 1017.8 |
| 20260503033046 | 3 | 269 | 3.2 | 4.8 | 0.00 | 0.00 | 0.00 | 87 | 1017.8 |
| 20260503032546 | 3 | 269 | 1.6 | 4.8 | 0.00 | 0.00 | 0.00 | 87 | 1017.8 |
| 20260503032046 | 3 | 269 | 1.6 | 4.8 | 0.00 | 0.00 | 0.00 | 87 | 1017.7 |
| 20260503031547 | 3 | 269 | 1.6 | 4.8 | 0.00 | 0.00 | 0.00 | 88 | 1017.8 |
| 20260503031046 | 2 | 259 | 1.6 | 4.8 | 0.00 | 0.00 | 0.00 | 88 | 1017.8 |
| 20260503030544 | 3 | 259 | 1.6 | 4.8 | 0.00 | 0.00 | 0.00 | 88 | 1017.8 |
| 20260503030048 | 3 | 278 | 1.6 | 4.8 | 0.00 | 0.00 | 0.00 | 88 | 1017.9 |
| 20260503025544 | 3 | 278 | 1.6 | 4.8 | 0.00 | 0.00 | 0.00 | 88 | 1017.9 |
| 20260503025047 | 3 | 278 | 1.6 | 4.8 | 0.00 | 0.00 | 0.00 | 88 | 1017.9 |
| 20260503024544 | 3 | 278 | 1.6 | 4.8 | 0.00 | 0.00 | 0.00 | 88 | 1017.9 |
| 20260503024045 | 3 | 273 | 1.6 | 4.8 | 0.00 | 0.00 | 0.00 | 88 | 1017.9 |
| 20260503023544 | 3 | 273 | 1.6 | 4.8 | 0.00 | 0.00 | 0.00 | 89 | 1018.0 |
| 20260503023043 | 3 | 273 | 1.6 | 4.8 | 0.00 | 0.00 | 0.00 | 89 | 1018.0 |
| 20260503022543 | 3 | 275 | 1.6 | 4.8 | 0.00 | 0.00 | 0.00 | 89 | 1018.0 |
| 20260503022043 | 3 | 275 | 1.6 | 3.2 | 0.00 | 0.00 | 0.00 | 89 | 1018.0 |
| 20260503021543 | 3 | 275 | 0.0 | 4.8 | 0.00 | 0.00 | 0.00 | 89 | 1018.1 |
| 20260503021043 | 3 | 275 | 1.6 | 4.8 | 0.00 | 0.00 | 0.00 | 89 | 1018.1 |
| 20260503020542 | 3 | 276 | 0.0 | 4.8 | 0.00 | 0.00 | 0.00 | 89 | 1018.0 |
| 20260503020042 | 3 | 265 | 1.6 | 6.4 | 0.00 | 0.00 | 0.00 | 88 | 1018.0 |